C/2004 G1 (LINEAR)                                                    

T 2004 June 4.79120 TT                                  Nakano

q   1.2024681            (2000.0)            P               Q

                   Peri.  110.48936     -0.05776557     +0.73067869

                   Node   228.37641     +0.13762035     +0.68073390

e   1.0            Incl.  114.48987     +0.98879916     -0.05205786

From 46 observations 2004 Apr. 9-May 5.

Residuals in seconds of arc 

2004/                     040410 J87  0.7-  1.0-    040414 704  0.3-  0.0   

040409 704  0.6-  0.5-    040411 360  0.4+  0.4+    040414 704  0.9-  0.3-  

040409 704  0.9-  0.5+    040411 360  0.1-  0.1+    040414 704  0.0   0.2+  

040409 704  0.6+  0.9-    040411 360  0.3+  0.1+    040414 704  0.1+  0.1+  

040409 704  1.3+  0.9+    040412 A54 (3.4-  0.7+)   040414 704  0.2+  0.5+  

040409 704  0.1+  1.2+    040412 A54  1.0+  1.2+    040414 704 (2.4+  0.8+) 

040410 H06  0.1+  0.2-    040412 704  1.0-  0.5-    040420 D74  0.4-  0.8+  

040410 H06  1.0+  0.2-    040412 704  0.5+  0.2-    040420 D74  0.2-  1.8+  

040410 H06 (2.6-  2.2+)   040412 704  0.1-  0.4-    040424 349  0.2+  0.5-  

040410 673  0.5+  0.0     040412 704 (2.5-  0.6+)   040424 349  0.0   0.3+  

040410 673  0.5+  0.2+    040412 704  2.1-  0.3+    040424 349  0.2+  0.4-  

040410 673  0.5+  0.3+    040412 704  0.1-  0.3+    040425 J76  0.6+  1.6-  

040410 673  0.8+  0.8+    040412 704  0.0   0.6-    040425 J76  0.9+  0.1+  

040410 673  0.6+  0.0     040412 704  1.0-  0.4-    040425 J76  0.4+  2.0+  

040410 673  1.0+  0.0     040412 704  1.3-  0.5-    040505 J76  1.7-  0.7+  

040410 J87  0.6-  0.5-    040414 704  0.2-  0.6-    040505 J76  0.9-  0.8-  

040410 J87  0.3+  1.1-    040414 704  0.5+  0.1+    040505 J76 (2.3-  3.3-) 

040410 J87 (3.6-  1.0-)   040414 704  0.7+  0.4-                            



NAKANO

         **** Don't distribute anyone except personal use only ****

                (C) Copyright 2005 OAA/ComputingSection

write mail from CFAD0::NAKANO on 2005-11-03 23:34:28(JST).

 



   C/2004 G1 (LINEAR)                                                    

T 2004 June 4.79134 TT                                  Nakano

q   1.2024665            (2000.0)            P               Q

                   Peri.  110.48955     -0.05776351     +0.73067861

                   Node   228.37644     +0.13762272     +0.68073374

e   1.0            Incl.  114.48988     +0.98879895     -0.05206100

From 45 observations 2004 Apr. 9-May 5.



NAKANO

         **** Don't distribute anyone except personal use only ****

                (C) Copyright 2004 OAA/ComputingSection

write mail from CFAD0::NAKANO on 2004-06-02 06:08:27(JST).

 

◎C/2004 G1の軌道と予報位置です



 この彗星も,続く国内の観測が入りません.なお,前回のEMES(〜4月20日)

の軌道からの5月5日の残差は5”でした.4月24日の上尾の門田健一氏の観測

によると,彗星は,意外と明るく16.6等(最終観測もほぼ同じ)でした.



    C/2004 G1 (LINEAR)                                                    

T 2004 June 4.79134 TT                                  Nakano

q   1.2024665            (2000.0)            P               Q

                   Peri.  110.48955     -0.05776351     +0.73067861

                   Node   228.37644     +0.13762272     +0.68073374

e   1.0            Incl.  114.48988     +0.98879895     -0.05206100

>From 45 observations 2004 Apr. 9-May 5.

 

Date/        TT  R.A.(2000) Decl.     Delta   r     Daily motion  Mag.  Moon Age

              h    h  m       。  ,                      ,  / PA 。  m1      。

2004 May  20 12  05 00.43  +63 35.4   1.709  1.226    37.1 / 165  16.5   38  .02

          21 12  05 01.86  +62 59.5   1.724  1.223    36.3 / 165  16.6   36  .05

          22 12  05 03.23  +62 24.4   1.739  1.220    35.6 / 165  16.6   38  .10

          23 12  05 04.53  +61 50.0   1.753  1.218    34.9 / 165  16.6   42  .16

          24 12  05 05.76  +61 16.3   1.768  1.215    34.2 / 165  16.6   49  .23

          25 12  05 06.95  +60 43.2   1.782  1.213    33.5 / 165  16.6   57  .32

          26 12  05 08.08  +60 10.7   1.796  1.211    32.9 / 166  16.6   66  .42

          27 12  05 09.17  +59 38.8   1.809  1.209    32.3 / 166  16.6   76  .52

          28 12  05 10.21  +59 07.5   1.823  1.208    31.7 / 166  16.6   87  .62

          29 12  05 11.21  +58 36.7   1.836  1.207    31.2 / 166  16.6   98  .72

          30 12  05 12.17  +58 06.5   1.849  1.205    30.6 / 166  16.6  110  .82

          31 12  05 13.10  +57 36.8   1.861  1.204    30.1 / 166  16.7  122  .90

     June  1 12  05 14.00  +57 07.6   1.874  1.204    29.6 / 166  16.7  133  .96

           2 12  05 14.86  +56 38.8   1.886  1.203    29.1 / 166  16.7  143  .99

           3 12  05 15.70  +56 10.6   1.898  1.203    28.7 / 166  16.7  150 1.00

           4 12  05 16.51  +55 42.7   1.909  1.202    28.2 / 166  16.7  150  .97

           5 12  05 17.29  +55 15.3   1.921  1.203    27.8 / 166  16.7  144  .92

           6 12  05 18.05  +54 48.3   1.932  1.203    27.4 / 166  16.7  134  .84

           7 12  05 18.78  +54 21.6   1.942  1.203    27.0 / 166  16.7  123  .75

           8 12  05 19.49  +53 55.4   1.953  1.204    26.6 / 167  16.8  111  .64

           9 12  05 20.19  +53 29.5   1.963  1.205    26.2 / 167  16.8   99  .54

          10 12  05 20.86  +53 04.0   1.973  1.206    25.9 / 167  16.8   88  .43

          11 12  05 21.51  +52 38.8   1.982  1.207    25.6 / 167  16.8   76  .33

          12 12  05 22.15  +52 13.9   1.991  1.209    25.2 / 167  16.8   65  .24

          13 12  05 22.77  +51 49.3   2.000  1.210    24.9 / 167  16.8   55  .16

          14 12  05 23.37  +51 25.0   2.008  1.212    24.6 / 167  16.8   44  .10

          15 12  05 23.96  +51 01.0   2.017  1.214    24.3 / 167  16.9   35  .05

          16 12  05 24.53  +50 37.3   2.024  1.216    24.1 / 167  16.9   28  .02

          17 12  05 25.09  +50 13.8   2.032  1.219    23.8 / 167  16.9   24  .00

          18 12  05 25.63  +49 50.6   2.039  1.221    23.5 / 167  16.9   25  .01

          19 12  05 26.16  +49 27.7   2.046  1.224    23.3 / 167  16.9   30  .03

          20 12  05 26.67  +49 04.9   2.052  1.227    23.1 / 168  17.0   39  .06

NAKANO

         **** Don't distribute anyone except personal use only ****

                (C) Copyright 2004 OAA/ComputingSection

write mail from CFAD0::NAKANO on 2004-05-21 05:11:06(JST).

 



◎C/2004 G1の軌道と予報位置です



 那賀川天文台の堀寿夫氏と前野拓氏から4月20日のこの彗星の観測の

報告がありました.彼らの CCD全光度は18.4等でした.



    C/2004 G1 (LINEAR)                                                    

T 2004 June 4.79831 TT                                  Nakano

q   1.2024247            (2000.0)            P               Q

                   Peri.  110.49956     -0.05769946     +0.73064509

                   Node   228.38128     +0.13775802     +0.68075848

e   1.0            Incl.  114.49165     +0.98878385     -0.05220768

From 36 observations 2004 Apr. 9-20.

 

Date/        TT  R.A.(2000) Decl.     Delta   r     Daily motion  Mag.  Moon Age

              h    h  m       。  ,                      ,  / PA 。  m1      。

2004 Apr. 25 18  02 33.04  +82 43.0   1.329  1.354    67.5 / 135  17.9   60  .31

          26 18  02 55.80  +81 53.3   1.343  1.347    65.8 / 140  17.9   62  .41

          27 18  03 13.93  +81 01.4   1.357  1.340    64.1 / 144  17.9   66  .50

          28 18  03 28.57  +80 08.2   1.372  1.333    62.5 / 147  17.9   71  .60

          29 18  03 40.59  +79 14.6   1.387  1.327    61.0 / 150  17.9   78  .70

          30 18  03 50.61  +78 21.1   1.402  1.320    59.4 / 152  17.9   85  .79

     May   1 18  03 59.08  +77 28.0   1.417  1.314    57.9 / 154  17.9   93  .87

           2 18  04 06.33  +76 35.4   1.432  1.308    56.5 / 156  17.9  102  .94

           3 18  04 12.61  +75 43.7   1.448  1.302    55.1 / 157  17.9  111  .98

           4 18  04 18.11  +74 52.7   1.463  1.296    53.7 / 158  18.0  120 1.00

           5 18  04 22.96  +74 02.7   1.479  1.291    52.3 / 159  18.0  127  .99

           6 18  04 27.29  +73 13.7   1.495  1.285    51.1 / 160  18.0  132  .95

           7 18  04 31.18  +72 25.6   1.511  1.280    49.8 / 161  18.0  134  .88

           8 18  04 34.69  +71 38.6   1.526  1.274    48.6 / 161  18.0  132  .79

           9 18  04 37.89  +70 52.5   1.542  1.269    47.4 / 162  18.0  127  .69

          10 18  04 40.81  +70 07.4   1.558  1.265    46.3 / 162  18.0  120  .58

          11 18  04 43.50  +69 23.2   1.574  1.260    45.2 / 163  18.0  111  .47

          12 18  04 45.98  +68 40.1   1.590  1.255    44.1 / 163  18.0  102  .36

          13 18  04 48.29  +67 57.8   1.606  1.251    43.1 / 163  18.0   92  .26

          14 18  04 50.43  +67 16.5   1.621  1.247    42.1 / 164  18.0   83  .18

          15 18  04 52.43  +66 36.0   1.637  1.243    41.2 / 164  18.0   73  .11

          16 18  04 54.31  +65 56.5   1.652  1.239    40.3 / 164  18.0   64  .06

          17 18  04 56.08  +65 17.7   1.668  1.235    39.4 / 164  18.0   56  .02

          18 18  04 57.74  +64 39.8   1.683  1.232    38.5 / 164  18.0   48  .00

          19 18  04 59.32  +64 02.6   1.698  1.228    37.7 / 165  18.0   42  .00

          20 18  05 00.81  +63 26.3   1.713  1.225    36.9 / 165  18.1   38  .02

          21 18  05 02.22  +62 50.6   1.728  1.222    36.2 / 165  18.1   37  .06

          22 18  05 03.57  +62 15.7   1.742  1.220    35.4 / 165  18.1   39  .11

          23 18  05 04.85  +61 41.4   1.757  1.217    34.7 / 165  18.1   44  .18

          24 18  05 06.07  +61 07.8   1.771  1.215    34.0 / 165  18.1   51  .26

          25 18  05 07.24  +60 34.9   1.785  1.213    33.4 / 165  18.1   59  .34

          26 18  05 08.37  +60 02.6   1.799  1.211    32.8 / 166  18.1   69  .44

          27 18  05 09.44  +59 30.8   1.813  1.209    32.2 / 166  18.1   79  .54

          28 18  05 10.47  +58 59.6   1.826  1.208    31.6 / 166  18.1   90  .65

          29 18  05 11.46  +58 29.0   1.839  1.206    31.0 / 166  18.1  101  .75

          30 18  05 12.42  +57 58.9   1.852  1.205    30.5 / 166  18.1  113  .84

